Zurück zum Katalog

STARLINK-37174

AktivKommunikationSSO
NORAD 68767·PAYLOAD·🇺🇸 United States

Gestartet Apr 19, 2026 von Vandenberg Space Force Base

Loading…

Nächste Überflüge (nächste 24 Stunden)

TLE

AktuellSource: CelesTrak SupGP

Epoche: Sep 14, 2026, 23:08 UTC

1 68767C 26086B   26257.96437500  .00030639  00000+0  95120-3 0  2579
2 68767  97.2846 293.4096 0001085  88.9911 229.4670 15.33420599    17

Verfolge STARLINK-37174 in Echtzeit mit AllMySat

Download on the App Store